Location: Castle
(40.7167°S, 175.9500°E)
Time: 04:33:41
(UTC+00:00)

YAOGAN 11 - Pass Details

Date: 04 August 2024
Orbit: 605 x 656 km, 98.4° (Epoch: 07 September)

Event Time Altitude Azimuth Distance (km) Brightness Sun altitude
Rises 18:15:39 0° 166° (SSE) 2,910 7.5 -12.2°
Reaches altitude 10° 18:17:50 10° 165° (SSE) 2,002 6.7 -11.8°
Maximum altitude 18:22:12 83° 76° (ENE) 637 4.2 -11.0°
Drops below altitude 10° 18:26:34 10° 348° (NNW) 2,000 6.7 -10.2°
Sets 18:28:45 0° 347° (NNW) 2,907 7.5 -9.8°
